Location: Rounton
(54.4000°N, 1.3500°W)
Time: 08:58:56
(UTC+01:00)

A-11 Canister half - Pass Details

Date: 28 June 2022
Orbit: 1525 x 1683 km, 47.3° (Epoch: 10 August)

Event Time Altitude Azimuth Distance (km) Brightness Sun altitude
Rises 23:29:17 0° 278° (W) 4,708 12.0 -9.5°
Reaches altitude 10° 23:32:32 10° 272° (W) 3,712 11.3 -9.6°
Maximum altitude 23:41:03 42° 206° (SSW) 2,059 9.4 -10.1°
Drops below altitude 10° 23:49:33 10° 139° (SE) 3,698 10.4 -10.5°
Enters shadow 23:49:50 - 139° (SE) 3,781 10.5 -10.5°
